Location: La Poissonni�re
(47.8073°N, 1.2620°W)
Time: 12:46:16
(UTC+00:00)

Daily predictions for brighter satellites

Satellite Brightness Start Highest point End
(mag) Time Altitude Azimuth Time Altitude Azimuth Time Altitude Azimuth
H-2A R/B 3.2 17:25:20 10° ESE 17:29:05 21° ENE 17:32:54 10° NNE
Meteor 1-21 Rocket 4.4 17:24:05 10° SSE 17:29:24 51° E 17:34:48 10° NNE
Cosmos 2344 4.4 17:21:20 10° NW 17:30:05 59° NE 17:42:08 10° ESE
Cosmos 1939 Rocket 3.3 17:27:07 10° SE 17:30:57 42° ENE 17:34:45 10° N
H-2A R/B 2.1 17:26:55 10° NNE 17:31:16 60° ESE 17:35:30 10° S
USA 229 DEB 4.0 17:24:46 10° NW 17:31:57 63° NE 17:39:33 10° SE
USA 229 4.0 17:24:53 10° NW 17:32:03 63° NE 17:39:39 10° SE
Cosmos 44 3.4 17:28:09 10° SSW 17:32:57 75° ESE 17:38:07 10° NE
CZ-3B R/B 1.8 17:31:12 10° NW 17:33:28 50° NNE 17:38:58 10° ESE
Cosmos 1602 Rocket 4.2 17:29:44 10° SSE 17:33:40 34° E 17:37:38 10° NNE
SeaSat 1 3.3 17:30:32 10° NNE 17:35:20 51° NW 17:40:05 10° SW
SJ 16-02 1.6 17:31:58 10° SSW 17:36:22 73° WNW 17:40:47 10° NNE
Cosmos 158 Rocket 4.4 17:31:23 10° NNW 17:36:46 73° WSW 17:42:08 10° SSE
Cosmos 2112 Rocket 4.0 17:31:57 10° NNW 17:37:12 71° ENE 17:42:22 10° SSE
FengYun 1-2 T 4.3 17:33:33 10° SSE 17:39:08 84° ENE 17:44:49 10° NNW
Cosmos 990 Rocket 4.1 17:34:46 10° S 17:39:52 59° ESE 17:44:57 10° NNE
YAOGAN 1 3.8 17:37:11 10° ESE 17:40:29 22° ENE 17:43:46 10° NNE
Cosmos 1844 Rocket 3.1 17:35:48 10° SW 17:41:27 68° WNW 17:47:06 10° NNE
Cosmos 1892 Rocket 4.4 17:37:16 10° SSW 17:41:30 53° WNW 17:45:46 10° N
H-2A R/B 3.2 17:38:11 10° S 17:42:17 61° WSW 17:46:36 10° NNW
Aureole 3 Rocket 3.5 17:39:43 10° NNE 17:42:33 26° ENE 17:45:53 10° SE
Cosmos 1818 4.3 17:37:45 10° WSW 17:43:04 53° NW 17:48:26 10° NNE
COSMOS 2406 3.5 17:38:04 10° NNW 17:43:42 49° NE 17:49:16 10° SE
Cosmos 2082 Rocket 3.1 17:38:56 10° NNW 17:43:51 28° NE 17:48:42 10° ESE
Cosmos 1844 3.9 17:39:48 10° SSW 17:45:28 77° WNW 17:51:16 10° NNE
Cosmos 1703 3.4 17:43:50 10° S 17:47:36 51° E 17:51:23 10° NNE
NOSS 3-1 (A) 4.1 17:40:18 10° NW 17:47:37 68° NE 17:56:11 10° SE
X-37B 1.4 17:45:01 10° W 17:48:06 47° S 17:51:12 10° ESE
IRS-1C Rocket 4.4 17:44:57 10° SE 17:49:54 44° ENE 17:54:53 10° N
ISS -3.1 17:47:46 10° W 17:51:02 43° N 17:53:50 13° ENE
Cosmos 1812 Rocket 3.6 17:47:28 10° N 17:51:47 53° ENE 17:56:01 10° SSE
Meteor 2-1 Rocket 4.4 17:48:02 10° NNW 17:53:36 77° W 17:59:04 10° S
ATLAS 2AS CENTAUR R/B 4.3 17:47:35 10° WNW 17:53:59 26° NNW 18:00:11 10° NE
Okean O Rocket 2.1 17:51:17 10° S 17:55:41 65° WSW 18:00:05 10° NNW
ATLAS 5 CENTAUR R/B 3.8 17:53:33 10° NW 17:56:23 16° NNW 17:59:29 10° NNE
CZ-4 R/B 2.0 17:56:21 10° SE 17:59:58 34° ENE 18:03:34 10° N
Iridium 4 Rocket 3.8 17:54:58 10° N 18:00:10 45° E 18:04:52 10° SSE
ERS-2 3.1 17:58:57 10° NE 18:02:03 26° E 18:05:08 10° SSE
SKYMED 2 3.7 17:57:52 10° NNE 18:02:08 52° E 18:06:22 10° S
CSL-04 Rocket 4.5 18:00:00 10° ESE 18:04:37 29° ENE 18:09:17 10° N
CZ-4C R/B 4.1 18:02:16 10° NW 18:06:40 20° N 18:11:40 10° NE
Okean-O 3.1 18:03:22 10° SE 18:07:29 39° ENE 18:11:37 10° N
Cosmos 1340 2.5 18:07:21 10° S 18:11:05 77° E 18:14:51 10° NNE
USA 234 4.0 18:05:52 13° ENE 18:11:19 41° N 18:17:20 10° WNW
Cosmos 1346 Rocket 3.5 18:08:11 10° SSE 18:11:41 31° E 18:15:11 10° NNE
Cosmos 2278 Rocket 2.5 18:06:23 10° S 18:11:44 45° ESE 18:17:08 10° NE
Cosmos 858 Rocket 4.5 18:08:32 10° S 18:13:46 69° ESE 18:19:02 10° NNE
CZ-2C R/B 3.2 18:10:29 10° SSE 18:15:58 79° ENE 18:21:45 10° NNW
SAR-Lupe-4 4.2 18:17:50 17° NE 18:20:02 33° E 18:23:17 10° SSE
COSMOS 2455 4.4 18:15:47 10° W 18:20:58 29° NW 18:26:10 10° NNE
Cosmos 44 Rocket 4.5 18:17:57 10° SSE 18:21:52 24° ESE 18:23:19 21° E
Cosmos 405 2.9 18:18:28 10° N 18:22:01 86° E 18:25:32 10° SSE
Cosmos 1455 4.3 18:19:05 10° NNW 18:22:29 30° W 18:25:51 10° SSW
NOSS 2-1 (E) 3.5 18:20:55 10° SW 18:24:09 54° NW 18:26:47 16° NNE
Cosmos 1627 Rocket 4.4 18:20:54 10° S 18:27:07 82° E 18:33:28 10° N
Cosmos 1626 Rocket 4.5 18:23:29 10° SSW 18:27:46 51° WNW 18:32:08 10° N
TELKOM 3 2.6 18:26:19 10° WNW 18:28:30 68° NNE 18:28:34 67° NE
ARGOS 3.4 18:24:30 10° SE 18:29:35 46° ENE 18:34:43 10° N
Cosmos 1869 4.1 18:26:46 10° NNE 18:30:11 28° ENE 18:30:11 28° ENE
Meteor 2-19 Rocket 4.4 18:25:15 10° S 18:31:20 66° E 18:37:26 10° NNE
PSLV R/B 4.0 18:29:17 10° NNE 18:33:27 55° E 18:37:34 10° S
Cosmos 1898 Rocket 4.0 18:29:35 10° SW 18:34:46 60° WNW 18:39:57 10° NNE
Cosmos 372 Rocket 4.0 18:30:20 10° S 18:35:26 58° ESE 18:39:58 13° NNE
Cosmos 1092 Rocket 4.2 18:29:54 10° SSW 18:36:03 72° W 18:42:13 10° N
SAR-Lupe-1 4.2 18:34:04 22° NNE 18:36:09 51° E 18:39:39 10° S
CZ-4B R/B 2.2 18:33:51 10° N 18:37:04 50° WNW 18:40:11 10° SSW
CZ-2C R/B 3.4 18:33:45 12° NNE 18:38:23 32° E 18:43:20 10° SSE
Cosmos 1328 4.4 18:34:29 10° SSW 18:38:24 57° WNW 18:42:20 10° N
CZ-2D R/B 4.2 18:36:43 10° S 18:40:26 49° W 18:44:11 10° NNW
Cosmos 2150 Rocket 4.5 18:40:05 10° SSE 18:44:45 36° ESE 18:45:58 32° ENE
MOS 1 Rocket 3.3 18:40:41 10° N 18:44:57 71° WNW 18:49:16 10° SSW
Cosmos 1048 Rocket 4.0 18:41:12 10° NNW 18:46:14 52° ENE 18:49:36 20° SE
Cosmos-2242 3.1 18:42:23 10° NNW 18:46:42 79° W 18:51:01 10° S
COSMO-SKYMED 1 3.4 18:45:58 10° N 18:50:12 51° WNW 18:54:24 10° SSW
Meteor 1-11 4.2 18:45:46 10° SSW 18:51:26 85° W 18:57:06 10° N
Cosmos 1758 Rocket 4.0 18:50:02 10° SSW 18:54:28 66° WNW 18:58:58 10° N
USA 290 3.6 18:52:00 10° NW 18:55:00 39° WSW 18:58:00 10° S
Cosmos 1937 Rocket 4.2 18:52:09 10° SW 18:57:21 53° WNW 19:02:35 10° NNE
SL-08 RB Rocket 3.6 18:59:19 32° SE 19:01:13 58° ENE 19:05:38 10° N
CSL-04 Debris 4.0 18:58:00 10° SSE 19:03:23 83° ENE 19:08:49 10° NNW
Helios 1A Rocket 3.1 19:02:06 10° S 19:06:14 73° WSW 19:10:24 10° NNW
Cosmos 2221 4.2 19:02:06 10° N 19:03:41 20° NNE 19:03:41 20° NNE
H-2A R/B 2.4 19:02:59 10° S 19:08:00 65° WSW 19:13:13 10° NNW
Cosmos 389 Rocket 4.2 19:04:34 10° N 19:05:56 22° N 19:05:56 22° N
Cosmos 1833 Rocket 3.6 19:02:52 10° NW 19:08:16 48° WSW 19:13:37 10° S
Cosmos 1125 Rocket 3.9 19:04:27 10° S 19:08:41 41° SE 19:08:41 41° SE
Cosmos 1809 Rocket 4.4 19:04:02 10° S 19:10:01 60° E 19:16:05 10° NNE
Cosmos 2298 Rocket 3.9 19:06:42 10° S 19:11:57 67° ESE 19:13:35 43° NE
Cosmos 1689 Rocket 3.4 19:13:25 37° WSW 19:13:25 37° WSW 19:15:33 10° SW
Cosmos 2266 Rocket 3.9 19:08:07 10° S 19:14:12 59° E 19:20:13 10° NNE
SJ 16-02 4.3 19:14:26 10° WNW 19:15:47 11° NW 19:17:09 10° NNW
YAOGAN 1 3.6 19:12:09 10° S 19:16:17 45° W 19:20:29 10° NNW
NOSS 2-2 (C) 4.4 19:13:34 10° NW 19:18:45 60° NE 19:20:07 49° E
HJ-1C 4.2 19:20:23 51° W 19:20:23 51° W 19:23:31 10° NNW
In-Cosmos 22 Rocket 4.1 19:18:05 10° S 19:23:52 79° E 19:29:33 10° NNE
X-37B 2.9 19:21:50 10° WSW 19:23:54 21° SW 19:23:54 21° SW
Cosmos 1943 Rocket 4.3 19:23:01 10° SSE 19:23:18 11° SSE 19:23:18 11° SSE
ISS -1.9 19:24:54 10° WNW 19:26:49 29° NW 19:26:49 29° NW
Cosmos 2082 Rocket 2.6 19:22:42 10° NNW 19:28:21 61° WSW 19:33:41 11° S
Cosmos 1241 Rocket 4.4 19:25:08 10° SSW 19:31:36 76° ESE 19:33:16 52° NE
CZ-4 R/B 3.8 19:31:49 10° SSW 19:35:03 23° W 19:38:16 10° NW
ERS-2 4.2 19:33:12 14° NNW 19:35:31 26° WNW 19:38:34 10° WSW
MetOp-A 4.1 19:37:46 68° NNE 19:37:46 68° NNE 19:42:35 10° N
Meteor 2-21 4.3 19:33:42 10° S 19:39:47 85° E 19:45:58 10° N
NOSS 2-2 (E) 4.4 19:36:29 10° NW 19:42:01 90° SW 19:43:31 58° SE
ATLAS 5 CENTAUR R/B 4.1 19:40:15 10° NNW 19:42:29 15° N 19:42:29 15° N
Cosmos 2315 Rocket 3.8 19:39:42 10° N 19:45:58 80° E 19:46:34 73° SE
Cosmos 883 Rocket 4.4 19:40:33 10° N 19:46:47 85° W 19:50:11 29° S
ATLAS 2AS CENTAUR R/B 4.1 19:41:14 10° NW 19:47:34 27° NNE 19:48:21 26° NNE
Meteor 2-14 Rocket 4.3 19:41:44 10° S 19:47:48 88° WNW 19:53:57 10° N
Ariane Rocket 4.4 19:51:36 29° N 19:51:36 29° N 19:54:02 10° N
IRS-1A Rocket 4.5 19:51:16 62° N 19:51:16 62° N 19:56:11 10° NNW
USA 234 3.7 19:53:13 46° NNE 19:53:35 47° NNE 19:59:47 10° NW
Cosmos 2278 Rocket 3.6 19:50:47 10° WSW 19:55:57 35° NW 19:59:05 21° N
CZ-4C R/B 3.9 19:51:51 10° NW 19:56:57 28° NNE 19:56:57 28° NNE
Cosmos 1655 Rocket 4.5 19:51:24 10° SSW 19:57:31 58° WNW 20:03:40 10° N
USA 281 4.3 20:04:50 29° NNE 20:04:50 29° NNE 20:08:31 10° NNW
Cosmos 44 Rocket 4.1 19:58:08 10° SW 20:02:05 50° W 20:02:05 50° W
CZ-2C R/B 3.7 20:15:10 19° N 20:18:48 44° WNW 20:24:05 10° SW
ATLAS 5 CENTAUR R/B 4.5 20:22:05 10° SSW 20:39:15 51° S 20:39:15 51° S
